カタリナ-マクノート彗星

319P/Catalina-McNaught (2022)

English version
Home page
Updated on November 1, 2021

---------------------------------------------------------------------

・ プロフィール

・ 軌道要素

Epoch 2022 Apr. 11.0 TT = JDT 2459680.5
T 2022 Mar. 31.43220 TT                                 MPCW
q   1.1889775            (2000.0)            P               Q
n   0.14630713     Peri.  203.67768     +0.69479173     +0.67709090
a   3.5669120      Node   111.37004     -0.61124969     +0.73360149
e   0.6666647      Incl.   15.09482     -0.37899639     +0.05810999
P   6.74
From 319 observations 2008 May 2-2015 Dec. 6, mean residual 0".5.

・ 光度変化

        m1 = 16.3 + 5 logΔ + 10.0 log r

---------------------------------------------------------------------

軌道要素はM.P.E.C. 2015-Y73に掲載されたものです。
光度グラフはComet for Windowsで作成したものです。

---------------------------------------------------------------------

Copyright(C) Seiichi Yoshida (comet@aerith.net). All rights reserved.